Theta_e
330 330 330 331 332 332 333 335 336 336 336 336 336 337 338 339 340 341 341 343 344 344 345 347 347 348 347 348 348 348 349 348 347 347 347 346 347 346 345 344 344 345 346 346 347 348 350 352 352 352 352 352 352 352 352 353 354 354 354 355 354 354 351
328 329 329 330 332 332 333 335 336 336 336 336 336 338 338 339 340 341 341 343 343 343 344 346 348 347 347 347 348 348 348 348 348 350 348 348 350 348 347 346 345 345 347 347 348 350 351 351 352 351 351 353 353 353 353 353 353 354 355 354 353 352 353
328 329 328 329 331 331 332 334 336 337 337 336 337 337 338 339 340 341 342 342 342 343 344 345 346 346 346 347 346 346 347 347 347 347 347 346 347 348 348 348 347 346 347 348 349 349 351 351 352 351 351 351 352 353 354 354 354 354 354 354 354 353 352
328 329 329 329 331 332 333 334 336 337 337 337 337 338 338 340 340 344 344 344 345 344 344 344 345 346 346 346 346 346 346 347 347 347 348 348 347 348 349 348 348 348 347 347 349 350 350 351 351 351 354 351 351 352 354 354 354 354 354 355 353 352 352
329 329 329 329 330 331 332 333 335 337 337 338 338 339 340 343 343 344 344 344 344 344 345 345 346 347 347 347 347 347 347 347 347 348 348 349 349 349 349 348 349 348 348 348 349 351 351 351 350 350 350 351 350 351 353 354 353 354 354 354 353 353 352
328 329 329 329 329 331 332 333 335 337 337 337 338 339 341 343 343 343 344 345 344 345 346 346 347 348 347 347 348 348 349 349 350 350 348 349 350 349 349 350 349 349 349 348 350 350 349 349 349 350 349 349 349 349 350 352 353 354 353 352 352 351 350
329 330 329 329 330 330 332 333 334 337 338 339 340 342 343 342 342 343 344 344 345 344 345 345 347 348 348 348 348 349 350 350 350 350 351 350 351 350 350 351 353 351 350 351 350 351 350 349 349 349 349 349 350 349 350 351 351 351 352 351 351 350 350
329 330 330 330 330 331 332 333 334 336 338 339 340 341 341 342 343 343 343 343 344 345 345 345 346 347 348 349 348 348 349 352 354 353 353 352 353 352 352 352 353 353 353 351 351 351 350 350 349 349 348 348 348 349 349 349 350 350 350 349 349 349 348
328 331 331 331 331 332 332 334 334 336 338 338 339 341 342 343 342 342 343 344 345 344 344 345 346 347 348 349 348 348 350 352 355 356 356 355 355 353 353 353 353 354 353 353 353 353 351 350 349 349 349 348 349 349 349 349 348 348 348 348 346 345 346
326 328 330 332 334 334 333 334 335 336 336 337 339 341 343 343 343 343 343 344 344 344 345 346 347 348 349 348 349 350 351 351 354 356 356 355 355 355 355 355 354 355 354 354 354 352 353 351 351 350 349 349 349 348 348 346 344 346 347 347 344 342 343
327 328 329 331 332 333 334 334 334 336 336 337 338 341 343 344 344 343 344 344 344 345 346 346 348 348 349 349 349 350 350 351 353 354 354 355 356 356 357 355 354 355 354 354 353 353 352 354 353 349 347 347 346 346 346 346 347 347 349 348 346 345 344
327 329 329 330 330 332 332 333 335 336 336 337 338 340 341 343 345 345 345 345 345 345 346 347 349 349 349 349 349 349 350 351 351 352 353 354 355 355 354 354 354 353 355 353 352 352 354 351 351 349 347 348 348 347 347 347 347 348 348 348 347 347 346
326 328 330 331 331 331 332 332 333 335 336 337 338 339 340 342 344 345 345 345 346 347 347 348 349 349 349 350 350 349 350 350 351 352 352 353 352 353 352 352 352 352 352 354 353 351 346 345 346 348 350 350 350 349 348 348 347 348 348 348 349 349 348
334 329 330 331 332 331 331 331 333 334 335 336 337 339 340 341 343 345 346 345 347 348 349 350 350 350 350 350 349 349 350 351 351 352 351 351 350 350 350 351 350 350 352 353 350 346 345 346 347 348 349 348 348 349 349 347 347 347 348 349 349 349 348
327 328 329 331 331 332 332 331 332 333 334 336 337 337 339 341 342 344 346 347 348 349 349 351 350 350 350 350 349 350 350 351 351 351 352 349 347 348 349 349 350 350 351 351 348 345 347 349 349 348 346 346 347 348 348 347 346 347 347 347 348 349 347
326 327 329 329 331 333 335 335 334 334 335 336 336 337 339 341 343 344 345 346 348 349 350 350 350 349 349 349 349 350 350 350 351 349 349 346 344 346 346 347 348 348 348 348 347 345 346 347 349 349 348 346 347 348 348 347 349 350 351 351 350 348 349
326 327 327 329 331 333 336 338 337 336 336 337 338 338 340 343 344 345 346 347 348 348 350 351 349 349 349 349 349 349 349 349 349 348 347 343 344 345 345 345 345 346 346 346 346 345 346 346 345 347 349 348 347 346 346 348 349 350 344 344 349 352 349
325 325 326 327 330 335 339 340 338 337 337 338 339 340 341 343 344 345 345 347 347 348 350 350 349 348 348 349 349 349 348 349 348 345 342 342 343 344 344 345 345 345 345 345 344 344 347 346 346 347 348 347 347 346 346 347 350 341 341 346 345 349 350
325 326 326 326 331 336 337 338 338 338 339 340 341 341 342 343 344 344 345 346 346 347 348 347 347 347 347 347 348 348 348 348 346 341 339 341 342 342 343 344 345 345 345 344 344 346 347 346 347 346 346 345 344 344 345 346 348 336 340 339 340 342 349
326 326 327 327 328 331 335 338 338 338 338 339 341 342 342 344 343 342 344 344 344 345 344 344 344 344 344 345 347 348 347 347 343 340 340 340 340 341 343 344 344 344 345 345 346 345 345 345 344 345 344 344 343 343 343 343 346 336 337 337 337 339 345
327 328 328 327 328 330 332 335 338 338 339 339 341 341 341 341 342 341 341 342 342 342 341 342 342 342 344 345 346 346 346 346 345 343 340 341 341 342 343 344 345 344 344 345 345 344 343 344 343 344 344 345 344 342 341 343 340 336 336 332 333 336 346
329 330 329 329 329 328 331 333 336 338 339 341 342 341 341 340 341 341 340 341 340 340 340 341 341 342 344 344 345 346 347 347 346 346 345 343 344 344 345 345 345 345 346 344 343 343 343 342 342 343 342 342 343 342 343 344 336 334 333 330 331 344 346
330 331 331 330 331 330 331 333 335 338 340 340 340 341 340 340 341 340 339 339 340 340 340 341 342 343 345 345 345 347 348 347 347 346 346 347 346 346 346 345 346 346 344 341 341 341 340 340 342 343 341 342 342 341 341 342 334 325 325 326 330 341 343
332 333 333 332 332 332 333 335 337 341 340 339 340 340 340 340 340 339 339 340 341 341 341 342 343 345 346 345 346 347 348 348 348 347 347 347 347 347 347 346 346 346 346 341 340 340 341 342 341 342 342 342 342 342 342 342 336 323 322 324 330 342 340
332 334 334 333 332 333 335 336 339 342 342 342 340 341 342 342 342 341 340 341 342 343 342 343 345 346 346 346 347 348 348 349 349 348 348 347 347 347 346 345 345 346 345 343 342 343 342 344 342 341 341 343 343 348 346 342 335 321 322 322 326 336 338
330 333 334 335 335 336 336 339 343 344 344 343 342 344 345 345 344 344 343 344 344 343 343 344 346 348 348 347 347 347 348 349 349 348 348 347 346 346 346 345 345 344 343 342 341 342 343 346 343 341 342 343 345 342 343 342 339 330 319 320 323 332 339
333 334 335 335 336 340 339 342 347 345 345 346 347 347 347 346 345 344 345 345 344 343 345 347 348 347 347 347 347 347 348 349 349 348 348 348 346 347 347 346 345 344 343 342 342 343 343 343 341 339 338 338 340 341 343 344 339 329 317 317 319 326 337
335 336 337 339 341 341 341 346 348 348 348 349 349 349 348 347 345 345 345 344 343 344 346 346 347 347 346 346 347 347 347 347 347 349 347 347 348 347 344 344 346 346 343 342 342 341 340 342 343 339 337 337 339 342 345 349 342 331 321 317 316 319 328
333 335 336 338 339 342 345 347 347 347 348 349 349 349 348 347 345 345 344 343 343 345 346 346 346 346 345 346 347 347 347 348 350 349 349 349 348 345 343 344 345 344 343 340 340 340 339 338 338 337 337 340 342 344 345 342 340 335 329 320 314 314 317
334 336 337 339 342 345 348 347 345 343 344 345 346 346 347 347 345 345 343 343 346 346 347 346 345 345 346 347 347 347 348 349 349 349 349 348 346 345 344 343 342 342 341 340 341 340 340 337 338 337 337 340 340 342 342 340 337 335 334 329 317 314 314
336 336 336 338 340 342 343 342 340 340 339 339 341 341 342 345 346 345 343 345 347 347 346 346 346 345 345 346 347 347 348 348 348 348 348 347 347 346 344 343 344 342 341 341 338 338 339 339 342 339 338 340 339 340 340 338 335 335 335 334 327 319 317
335 336 336 337 338 340 339 339 339 338 336 336 338 338 339 341 345 344 344 347 348 347 346 347 346 346 345 346 347 347 348 346 346 346 346 345 345 345 343 344 343 341 338 338 339 339 338 341 342 341 339 340 339 340 339 337 336 332 327 326 330 327 321
334 335 336 336 337 337 336 338 338 337 335 334 336 338 339 339 340 343 346 348 348 348 347 347 347 347 346 346 346 345 345 344 344 343 341 340 340 339 338 339 341 341 339 336 337 338 341 342 341 338 338 338 338 339 339 336 331 326 323 321 322 321 322
331 333 332 334 336 337 337 336 336 335 335 334 335 337 338 339 340 343 348 350 350 348 347 347 347 345 344 344 345 345 345 348 350 338 329 324 323 323 323 325 328 326 325 324 324 331 334 335 336 336 337 338 339 339 337 334 325 318 317 316 316 318 319
332 331 331 332 334 336 336 336 336 335 335 335 335 336 337 338 341 345 348 349 348 347 347 348 348 345 343 342 344 347 349 345 339 333 326 321 317 314 313 315 319 323 320 317 315 319 325 332 331 332 334 333 332 336 334 330 322 315 310 311 307 311 314
331 332 331 332 332 333 335 337 335 335 335 334 335 336 337 338 340 344 348 348 347 347 348 347 344 341 339 340 342 344 343 339 335 332 328 323 320 317 316 315 307 310 320 318 314 307 303 309 324 325 324 317 313 317 324 321 314 306 299 297 297 298 299
330 331 331 332 332 331 332 333 336 335 334 334 336 337 337 338 339 340 342 343 342 341 340 341 341 339 337 340 339 340 339 336 334 332 328 325 323 322 321 320 315 300 303 311 310 304 298 298 301 307 315 322 314 311 309 308 302 297 296 296 296 295 295
333 333 332 332 330 331 332 333 334 333 334 334 336 336 336 337 337 337 338 338 337 336 334 333 334 336 338 337 340 343 339 333 335 332 328 326 326 326 326 325 323 321 304 301 305 302 299 298 298 299 301 306 312 318 313 305 300 297 296 297 297 297 297
Wind_Speed
10 12 11 11 11 12 13 13 14 13 13 12 13 14 13 12 11 11 11 11 12 10 7 6 8 9 11 11 11 10 10 9 8 9 9 8 8 7 7 6 6 7 6 6 6 7 7 6 7 7 6 8 7 7 7 6 6 6 6 6 5 5 6
10 9 10 10 10 10 11 12 12 12 11 12 12 13 12 13 12 11 12 10 6 10 7 2 2 5 6 7 7 8 9 10 8 7 7 6 6 7 7 7 7 7 6 6 6 6 6 7 7 7 7 7 7 7 7 7 7 7 6 6 6 6 5
11 11 10 10 11 11 11 10 11 12 12 11 11 11 12 12 13 12 7 14 13 9 11 12 12 8 6 6 6 6 7 7 8 9 9 8 8 7 6 5 6 6 6 6 6 6 6 6 7 7 7 7 7 7 7 7 7 7 7 6 6 6 6
10 11 11 11 12 12 14 13 12 11 11 12 13 13 13 10 8 17 17 15 8 8 13 11 9 8 9 10 11 10 10 10 10 10 9 9 8 7 6 6 6 5 5 6 6 6 6 7 7 7 8 7 8 7 6 7 6 6 6 5 4 5 5
6 6 6 8 10 10 10 11 13 13 13 13 13 13 10 16 18 15 16 17 19 18 16 15 12 11 10 10 8 8 11 12 11 9 8 8 7 7 7 7 6 6 7 7 6 7 6 6 6 6 7 7 7 6 7 6 6 7 6 6 6 6 5
8 9 9 9 10 11 12 12 12 13 13 13 12 9 14 16 15 17 16 16 15 15 14 12 10 9 10 9 8 8 7 8 7 8 8 7 7 6 6 6 6 6 7 8 6 7 7 6 6 7 8 7 8 8 8 8 8 7 6 5 5 5 5
6 7 8 9 10 10 11 11 11 11 12 12 7 11 14 15 17 17 16 16 16 16 14 13 13 11 11 9 9 8 6 7 7 8 7 6 6 5 6 5 6 7 7 5 6 5 6 7 8 8 8 9 8 9 8 8 8 7 7 6 6 6 6
6 7 6 7 8 9 10 10 10 10 9 7 11 13 14 13 13 13 14 14 14 14 14 14 12 11 11 9 8 9 8 7 7 6 5 6 5 5 5 5 6 7 6 6 6 5 6 8 8 7 8 7 8 8 9 8 8 7 6 6 7 6 4
5 6 8 8 8 8 8 9 9 10 10 11 14 14 14 13 14 14 14 13 13 14 15 14 14 12 10 9 9 10 8 6 5 4 5 5 5 5 6 7 7 6 6 6 5 5 7 8 7 6 6 6 6 8 7 6 3 4 6 7 9 12 11
5 4 4 3 3 4 5 5 5 5 7 9 9 10 13 13 12 11 11 13 13 15 15 13 10 9 9 9 9 8 7 7 6 6 6 7 6 6 6 7 7 6 6 6 4 6 5 4 2 3 6 9 10 11 10 12 10 4 1 4 6 5 5
3 3 3 3 4 3 3 4 6 7 9 10 11 10 11 11 11 12 12 12 13 14 14 12 9 8 9 9 9 7 8 8 8 8 8 8 7 7 6 8 7 5 4 4 4 3 1 4 6 8 7 3 5 3 4 4 2 3 3 2 3 4 4
3 3 4 4 4 5 6 7 5 5 6 7 9 11 10 10 10 11 11 13 14 13 11 10 8 8 8 8 8 8 9 8 8 9 9 6 4 5 8 8 4 2 1 2 2 1 6 9 7 5 4 4 4 5 3 4 6 5 3 2 3 3 3
2 2 2 4 6 5 4 4 8 9 9 10 10 10 10 10 10 10 11 11 11 10 10 8 8 7 7 7 8 7 8 9 9 7 4 6 5 6 7 6 4 4 4 3 4 8 10 6 3 2 2 3 5 6 8 7 4 2 2 3 3 3 3
3 2 2 1 3 5 8 9 8 9 10 9 9 9 8 8 9 11 11 12 9 5 4 3 4 4 5 6 7 7 7 6 5 5 7 6 6 8 6 3 2 1 3 6 9 11 7 4 8 5 2 3 5 3 1 1 2 3 3 2 3 3 3
4 2 1 0 1 3 4 7 9 9 10 10 9 9 7 7 6 5 5 5 6 6 7 7 7 6 6 5 6 6 5 5 5 7 8 7 5 6 5 5 1 4 4 6 7 7 6 5 1 2 0 3 3 4 6 4 3 3 2 4 3 2 2
4 3 3 5 6 5 4 5 4 3 3 5 8 8 8 8 8 8 9 8 8 8 7 8 9 9 9 9 8 6 5 5 5 8 9 8 4 5 5 4 2 4 3 4 6 6 5 3 3 3 3 3 5 5 3 4 3 4 7 6 3 2 3
4 5 6 5 5 6 6 5 3 1 1 0 1 4 5 6 7 7 8 7 8 8 7 8 8 8 7 6 6 6 6 6 6 8 9 9 5 6 5 3 1 2 2 4 6 5 5 5 6 6 5 5 3 4 3 2 1 2 2 1 3 3 3
7 8 6 5 4 5 5 6 5 4 3 4 5 5 6 6 6 7 7 7 7 6 6 5 5 6 6 5 4 4 4 4 7 10 10 9 8 8 2 1 1 1 2 1 6 2 2 3 3 4 5 5 4 3 3 3 4 2 2 1 2 5 3
3 3 4 5 4 4 4 4 4 4 4 4 5 5 4 5 6 6 6 6 4 5 6 6 5 4 4 4 5 5 5 5 8 10 12 9 7 4 3 4 2 3 3 2 5 6 4 2 1 2 3 4 4 3 1 2 3 3 3 3 3 4 7
2 2 2 2 3 2 1 3 5 5 5 5 5 5 5 5 6 5 5 5 5 5 4 5 4 4 4 3 4 5 5 5 8 9 12 10 10 7 5 5 6 4 4 3 4 5 5 4 3 3 4 4 2 1 1 2 3 3 1 4 6 5 5
4 4 3 3 2 2 1 3 5 6 6 5 6 6 7 6 6 6 6 5 6 5 6 5 5 4 4 3 3 5 6 7 7 11 13 10 8 7 7 7 6 7 6 5 5 4 4 5 4 3 3 3 2 2 2 1 2 3 3 3 5 7 3
7 5 5 5 5 4 4 5 6 6 6 5 6 6 6 7 7 7 6 5 5 5 5 5 5 5 4 4 4 5 6 7 7 9 10 11 8 7 7 6 6 6 5 4 3 4 4 3 2 3 3 3 4 3 1 2 2 4 2 5 3 3 2
8 8 6 4 6 6 4 3 5 5 5 4 4 5 5 6 7 7 7 6 5 5 6 6 6 5 4 5 5 6 6 7 7 7 9 9 9 9 7 6 6 7 6 6 5 5 4 4 4 4 4 4 2 1 1 2 4 4 5 3 2 2 2
7 7 5 2 3 4 3 3 3 5 6 6 5 5 5 5 6 7 7 7 7 7 6 6 6 5 5 5 6 6 7 7 6 7 8 10 10 9 7 5 4 6 6 7 7 6 5 5 3 2 2 3 3 4 2 2 4 4 5 3 1 2 2
8 6 4 0 3 4 2 3 3 3 4 6 8 7 7 7 6 6 7 6 6 5 5 5 5 5 5 5 5 5 6 7 7 6 7 8 9 7 7 6 5 4 4 3 3 3 2 2 3 3 3 3 3 5 3 4 4 5 5 6 4 2 2
10 7 3 4 4 4 2 0 3 4 4 5 7 7 8 7 7 7 7 6 5 4 4 3 3 3 3 4 4 4 5 6 8 7 7 7 6 6 6 5 4 3 2 2 2 1 1 0 1 2 2 1 2 3 4 4 4 5 6 5 5 4 4
8 2 2 4 3 3 1 1 2 4 5 5 7 7 6 7 8 7 6 6 6 4 3 3 3 4 4 3 4 4 5 5 6 6 5 5 5 5 5 4 4 4 3 3 2 2 2 2 1 2 2 2 2 3 3 3 5 5 6 5 6 6 5
4 4 3 4 5 4 1 1 3 4 4 6 7 7 7 6 7 7 7 7 7 5 4 5 5 4 4 5 4 4 4 4 4 5 4 4 5 5 4 3 3 3 4 3 4 3 3 2 2 2 2 2 2 3 3 6 9 5 5 6 7 8 7
2 5 4 6 6 2 3 4 5 5 5 5 6 6 7 8 9 9 8 7 6 6 6 5 5 5 5 5 5 4 4 4 5 5 4 4 4 5 4 4 4 4 4 5 4 4 4 3 2 3 4 4 4 4 4 5 5 8 6 6 7 8 6
5 5 2 4 7 6 6 5 5 4 5 4 4 4 5 7 8 7 9 8 7 7 6 6 6 6 6 5 5 4 5 5 5 5 5 5 5 5 5 4 4 4 3 4 4 3 3 2 1 2 2 3 4 4 4 4 4 6 7 6 7 6 5
7 8 7 8 9 9 8 7 5 3 1 1 4 4 4 5 8 8 7 7 8 8 7 7 7 6 6 6 5 5 5 5 5 5 4 4 4 5 4 4 3 3 2 3 3 2 3 2 2 2 1 2 3 3 3 3 4 4 6 8 9 8 6
5 7 7 7 8 10 11 9 7 6 4 1 2 3 3 3 6 11 8 8 8 8 8 8 7 6 6 6 5 5 6 7 6 5 5 5 4 4 3 4 3 3 2 3 3 2 2 2 1 1 1 2 2 2 3 3 3 4 3 5 5 5 7
2 2 6 8 8 10 11 11 10 9 7 6 4 5 6 6 4 6 8 9 7 7 8 7 7 6 6 5 5 5 5 6 5 5 5 5 4 4 4 4 3 4 4 3 3 2 1 1 1 1 2 2 2 2 3 4 4 4 4 4 4 5 6
6 6 7 4 3 6 9 11 11 9 9 7 7 7 5 3 2 4 7 9 7 6 7 7 7 6 5 5 5 4 4 5 8 7 5 5 5 5 5 5 4 4 4 2 1 1 1 2 2 2 2 2 3 3 4 4 4 5 5 6 6 5 5
5 4 2 2 4 3 6 7 7 8 8 6 4 1 2 1 3 4 9 9 8 6 7 7 7 6 6 5 5 4 4 4 5 5 5 5 7 8 7 5 5 4 4 4 2 2 2 4 3 3 3 4 4 3 4 4 4 4 4 4 5 5 4
5 5 6 8 10 13 9 2 6 6 6 4 2 2 2 3 3 4 8 10 9 8 7 7 6 6 5 4 4 4 4 4 4 5 5 5 6 7 9 12 10 7 4 4 7 8 5 4 4 3 4 5 5 5 3 3 3 3 4 4 5 5 5
6 4 3 7 10 11 13 9 6 5 2 2 3 4 2 5 2 6 7 10 11 11 10 8 6 5 4 3 3 3 4 4 4 4 5 5 5 7 8 7 8 12 11 9 8 9 11 12 11 10 7 6 5 7 11 9 6 4 4 5 5 5 6
3 3 2 2 8 10 3 6 7 6 5 4 5 5 3 5 4 6 7 9 11 11 10 9 7 5 3 2 2 3 4 4 5 5 5 5 5 5 7 8 8 7 9 9 9 11 13 13 14 13 13 11 8 6 4 5 5 5 5 5 6 7 7
Wind_Direction
181 180 183 181 182 184 186 187 184 185 184 183 184 185 186 185 184 180 181 180 188 183 179 182 195 194 197 201 202 200 201 197 195 199 202 208 209 203 199 199 203 212 207 206 211 209 216 205 201 207 213 216 219 220 220 220 220 217 217 216 216 216 225
180 183 178 176 177 183 186 184 183 182 184 184 184 184 184 185 182 181 185 173 112 70 65 79 221 221 216 222 217 208 201 202 200 205 204 208 210 210 202 200 202 208 210 214 211 217 214 210 199 206 212 214 221 222 219 218 220 219 214 209 207 215 212
177 177 175 174 174 177 179 183 185 182 182 183 183 181 186 186 184 183 130 80 90 152 188 196 199 191 180 189 200 214 216 210 205 205 204 204 208 205 201 199 201 205 208 212 214 217 215 216 208 211 212 216 223 225 224 223 222 218 220 213 209 210 213
175 179 180 177 173 174 178 177 179 182 183 182 185 186 187 174 98 71 79 106 137 198 218 219 204 195 197 198 200 197 198 204 208 208 208 206 204 198 192 200 202 204 208 211 211 214 218 218 215 215 215 217 225 227 223 225 223 219 221 205 215 218 222
159 155 154 169 171 174 179 179 178 179 184 186 187 186 154 95 100 126 145 161 177 194 206 207 205 203 208 209 211 203 201 200 204 208 212 211 208 196 197 197 194 201 211 213 213 215 219 217 219 217 219 217 221 219 220 216 216 214 214 205 216 214 219
161 165 169 174 176 180 180 181 183 179 179 182 184 161 116 135 149 157 163 172 185 196 202 206 204 201 207 208 213 217 209 208 205 205 208 208 204 205 204 201 197 204 209 212 205 210 212 216 219 216 216 211 216 216 214 212 216 207 212 203 221 225 226
171 171 171 177 177 179 181 182 183 184 182 181 146 117 141 157 167 171 173 177 182 192 198 203 205 200 210 201 207 211 208 207 202 205 204 202 201 208 210 206 208 212 217 210 214 200 202 216 222 221 215 215 213 213 210 209 212 205 202 202 218 222 226
166 169 177 177 179 177 181 183 184 183 180 139 127 147 158 168 170 175 179 178 182 191 196 201 203 202 209 205 205 202 200 203 206 205 196 197 181 190 194 209 216 218 213 212 216 196 208 218 223 222 219 214 216 216 213 214 216 204 194 206 218 224 229
173 171 171 178 178 183 181 180 179 176 166 154 159 164 164 166 175 181 180 174 183 188 200 203 203 198 197 199 201 203 197 195 197 167 174 184 182 190 198 210 222 217 215 213 206 195 211 223 225 226 221 219 222 224 224 228 252 345 359 1 7 359 347
154 162 178 168 166 176 178 168 158 147 144 156 161 160 166 175 177 174 177 183 184 196 200 202 203 191 192 200 205 192 177 190 180 172 176 187 194 201 208 215 221 216 215 215 202 209 220 236 285 338 1 4 360 356 1 28 36 10 206 153 149 182 232
129 146 128 131 142 137 124 146 159 165 164 168 171 173 176 174 173 176 182 185 192 201 200 199 192 183 191 197 197 179 181 187 183 186 186 188 182 197 210 222 222 210 208 184 212 208 68 48 36 68 96 174 188 163 120 136 173 232 252 204 171 181 189
67 106 144 144 135 140 163 177 168 158 173 178 179 179 177 174 176 181 184 193 196 200 198 198 182 187 185 187 189 188 185 189 192 199 198 179 140 174 209 217 202 111 107 151 184 41 46 45 54 83 146 179 121 133 158 194 208 204 187 180 174 171 193
70 88 128 162 173 175 159 161 184 182 180 185 185 185 180 174 177 181 188 196 202 204 200 190 181 181 177 178 187 191 195 191 199 196 135 106 156 205 217 212 159 160 183 99 71 50 61 58 314 243 192 137 143 161 169 185 202 194 220 194 197 191 191
90 72 62 77 156 177 186 192 187 184 186 186 192 188 183 180 180 183 186 193 195 186 167 141 159 170 177 175 188 200 201 191 172 130 109 128 176 216 222 232 140 94 62 75 76 88 112 187 232 223 155 154 162 148 101 80 189 176 194 247 249 256 263
22 28 13 337 256 239 221 203 197 192 190 192 184 183 169 160 159 151 153 156 169 168 171 156 159 168 174 182 194 200 181 164 155 114 119 135 202 241 236 244 185 71 60 82 108 124 152 197 301 57 205 275 251 152 164 188 249 302 254 248 244 212 278
354 347 3 5 356 348 337 321 313 287 215 187 186 176 168 164 162 166 167 170 170 173 171 159 175 176 182 189 188 165 161 152 128 116 123 135 162 248 250 259 82 102 120 120 118 135 172 175 175 172 194 250 274 264 168 148 178 221 241 248 246 189 217
327 346 7 8 4 353 355 3 25 50 48 38 163 180 169 163 159 158 162 169 174 179 176 175 179 181 178 186 165 152 144 141 128 112 109 116 178 231 241 252 314 86 155 141 124 145 184 209 217 213 192 201 242 290 312 301 216 266 128 215 262 230 213
358 349 348 357 358 6 15 26 25 45 85 115 127 141 154 154 151 153 163 160 164 156 144 155 162 175 186 167 135 127 127 129 112 102 109 145 192 213 196 332 8 130 201 130 97 112 191 196 210 203 190 177 182 236 285 319 302 116 224 241 3 353 325
331 323 324 331 349 25 33 48 49 48 77 97 116 123 124 136 138 145 145 146 130 126 147 154 152 147 132 117 132 131 131 133 117 120 135 154 182 205 193 205 171 189 203 212 138 153 170 186 157 170 149 150 162 197 234 265 218 156 257 314 23 340 319
310 289 280 279 307 315 16 74 74 70 78 91 91 93 92 90 110 110 113 120 119 123 118 121 116 128 131 119 121 125 126 109 106 124 132 160 183 178 197 203 197 182 193 195 156 139 134 145 167 176 178 170 158 167 203 212 159 159 301 354 356 304 267
322 275 231 223 250 273 102 110 113 112 110 113 118 117 111 108 122 124 121 132 133 121 123 122 125 130 117 127 130 120 113 103 117 131 149 168 178 179 189 199 162 155 169 172 158 150 159 166 173 194 177 149 140 194 224 214 22 280 31 36 246 239 215
313 282 251 199 194 214 188 164 150 146 147 153 147 143 137 140 141 132 126 123 121 123 127 132 138 142 145 147 140 126 122 127 132 141 153 165 173 175 185 181 164 159 155 150 145 153 159 158 159 169 172 182 183 193 146 221 314 34 94 205 183 157 151
303 286 258 206 167 188 225 198 156 151 140 135 131 131 127 131 133 127 124 125 122 127 136 140 145 154 153 144 138 134 134 144 151 150 151 155 160 163 167 170 157 150 145 149 159 158 175 185 187 201 190 189 197 169 196 291 61 132 163 114 128 140 151
311 287 280 158 136 138 171 184 167 147 141 134 113 105 113 115 121 125 129 132 138 139 143 148 150 151 152 153 146 147 149 153 151 151 149 147 147 148 152 156 155 160 155 154 159 165 185 182 172 219 235 219 215 207 183 149 129 145 100 78 31 122 132
316 285 291 258 134 137 171 188 159 139 120 121 117 115 115 114 117 116 120 124 129 133 140 149 151 155 159 153 141 138 146 149 150 151 147 143 144 143 144 154 162 159 147 141 134 135 150 150 149 161 196 219 217 223 168 129 104 101 89 66 30 71 69
323 304 330 42 40 33 6 227 147 131 131 116 120 128 126 129 127 112 107 116 121 130 134 144 155 147 130 130 125 129 129 145 150 147 142 138 134 141 143 139 137 141 97 75 97 91 109 147 112 145 128 102 100 72 92 116 103 98 81 66 43 47 73
314 259 116 93 83 81 38 299 130 131 136 125 128 134 134 136 122 117 121 124 128 140 145 122 112 106 103 111 127 135 146 148 141 132 129 136 140 136 130 128 128 134 135 142 128 108 106 105 95 79 71 35 50 76 102 126 113 97 87 71 59 55 80
356 54 70 117 118 100 77 102 85 110 125 131 135 136 136 128 121 128 135 135 144 140 111 107 109 114 127 136 137 139 127 103 92 112 125 123 117 105 100 106 115 116 135 134 131 112 104 126 119 97 78 69 84 103 93 102 109 115 86 78 67 55 59
139 123 148 132 117 129 146 135 125 128 127 136 139 141 146 141 139 139 136 135 133 125 129 114 117 120 120 126 128 124 116 114 118 113 111 112 110 115 114 119 119 121 131 132 137 139 142 148 141 127 114 106 102 100 88 83 91 101 102 101 94 86 72
112 99 156 136 132 133 142 126 114 119 132 128 121 112 128 141 139 133 132 133 135 131 129 129 124 124 127 132 124 109 98 99 96 100 102 114 112 115 119 119 125 121 122 134 129 125 116 104 132 126 120 118 116 113 102 89 94 78 86 93 95 97 97
136 149 174 164 147 134 126 132 133 124 97 64 122 114 102 120 136 134 133 143 141 141 136 133 132 123 125 121 112 98 94 86 87 92 95 94 117 120 121 113 118 93 67 93 97 106 105 112 115 101 122 114 114 117 102 87 81 72 69 80 91 77 69
135 147 168 167 149 147 138 129 136 138 131 75 72 113 140 155 147 138 146 148 147 141 134 131 125 120 117 118 107 107 100 89 83 82 84 80 75 81 93 116 101 98 86 75 81 80 83 48 65 71 88 67 73 101 104 85 82 67 48 26 38 53 40
335 200 183 180 169 146 143 149 157 159 156 168 185 186 198 189 199 153 141 133 132 131 122 118 114 114 109 104 101 94 94 93 94 85 67 59 59 57 52 34 58 72 55 42 44 67 100 33 349 17 20 39 51 82 89 84 65 45 31 18 17 19 17
344 346 344 324 237 171 152 154 154 158 163 179 190 195 204 192 143 150 127 117 120 119 110 104 105 104 98 94 92 85 95 108 104 94 68 47 36 32 23 21 30 56 51 44 25 51 71 72 77 70 81 91 76 85 78 88 69 38 21 22 22 19 19
325 313 329 310 289 239 180 155 145 148 161 182 195 1 358 135 165 151 117 113 112 111 101 96 92 90 85 85 84 97 100 88 96 93 93 78 66 58 46 27 19 55 69 43 5 311 78 102 95 85 76 69 59 83 87 71 62 47 42 55 50 46 28
344 352 22 31 4 335 325 49 111 131 154 168 103 57 360 252 176 124 112 112 109 101 87 78 73 73 69 70 88 93 89 83 91 101 105 104 102 92 69 54 51 30 56 61 43 47 30 29 91 92 105 91 57 32 58 88 112 103 66 54 51 49 54
49 33 55 89 72 16 350 344 41 56 64 54 60 57 31 283 227 109 98 97 92 85 76 67 67 70 60 56 62 92 97 103 106 114 116 121 120 113 109 92 56 49 47 58 72 67 66 66 65 63 62 106 116 76 77 97 106 93 69 52 43 39 33
77 127 126 75 114 122 93 347 16 39 34 26 32 55 38 303 284 118 114 110 107 103 97 88 77 40 23 69 73 103 113 115 133 131 123 122 125 126 126 112 101 66 46 52 68 68 67 65 63 63 67 66 90 117 94 90 86 73 61 56 55 53 52